Location: Plymouth
(43.7490°N, 87.9770°W)
Time: 11:06:12
(UTC-05:00)

Daily predictions for brighter satellites

Satellite Brightness Start Highest point End
(mag) Time Altitude Azimuth Time Altitude Azimuth Time Altitude Azimuth
Cosmos 1400 Rocket 3.7 21:05:32 10° SSW 21:09:29 53° WNW 21:13:23 10° N
Cosmos 2285 Rocket 4.1 21:03:23 10° S 21:09:36 64° ESE 21:15:50 10° NNE
Cosmos 2266 Rocket 4.3 21:03:26 10° N 21:09:51 79° W 21:16:08 10° S
USA 238 DEB 4.2 21:02:51 10° NNW 21:09:53 58° NE 21:17:01 10° SE
USA 238 4.2 21:02:58 10° NNW 21:09:59 58° NE 21:17:06 10° SE
Cosmos 2084 3.2 21:07:54 10° NW 21:11:46 89° NE 21:15:37 10° SE
Cosmos 1346 Rocket 3.2 21:10:28 10° N 21:14:23 49° ENE 21:18:19 10° SSE
Lacrosse 5 2.0 21:09:45 10° SW 21:14:50 85° NW 21:19:56 10° NE
Cosmos-2242 3.4 21:11:56 10° N 21:16:15 51° ENE 21:20:31 10° SSE
Cosmos 1331 Rocket 4.5 21:15:23 10° N 21:20:25 47° ENE 21:25:27 10° SE
Aureole 1 Rocket 3.3 21:18:12 10° SSW 21:21:26 58° WNW 21:25:27 10° NNE
Meteor 1-24 Rocket 3.9 21:16:35 10° S 21:22:34 68° E 21:28:32 10° NNE
Cosmos 494 Rocket 4.4 21:18:41 10° S 21:23:38 44° ESE 21:28:37 10° NNE
H-2A R/B 2.4 21:19:33 10° SSE 21:24:45 58° ENE 21:30:05 10° N
Timation 1 Rocket 4.4 21:19:56 10° S 21:25:43 56° ESE 21:31:34 10° NE
Cosmos 2082 Rocket 4.3 21:23:50 10° N 21:27:13 16° NE 21:30:36 10° E
Cosmos 1269 Rocket 4.0 21:22:16 10° SSW 21:27:34 83° ESE 21:32:54 10° NNE
Cosmos 2263 Rocket 4.5 21:25:36 10° WSW 21:30:31 30° NW 21:35:28 10° N
Helios 1B rocket 4.3 21:29:36 10° ENE 21:31:45 14° E 21:33:41 11° ESE
Helios 1A 4.3 21:28:29 10° ESE 21:31:56 26° ENE 21:35:25 10° N
Cosmos 1908 3.5 21:30:39 10° N 21:34:27 52° E 21:38:07 11° SSE
ATLAS 2AS CENTAUR R/B 3.1 21:30:09 10° SSW 21:37:58 83° SE 21:46:09 10° NE
Cosmos 1340 3.5 21:36:06 10° N 21:39:39 36° ENE 21:42:33 14° SE
Iridium 4 Rocket 4.2 21:39:16 10° SSW 21:44:46 59° W 21:49:52 10° N
Cosmos 1553 Rocket 4.1 21:39:07 10° SSE 21:45:00 56° E 21:50:56 10° NNE
Cosmos 1953 Rocket 4.2 21:43:27 10° SSW 21:47:44 58° W 21:52:06 10° N
Cosmos 1437 3.7 21:46:00 10° NNW 21:49:03 44° W 21:52:04 10° S
MetOp-B 4.2 21:44:02 10° SSE 21:49:23 87° WSW 21:54:47 10° NNW
DMSP B5D2-2 4.4 21:46:15 10° NNE 21:51:20 48° E 21:56:21 10° S
ERS-1 Rocket 3.0 21:46:45 12° SSE 21:51:28 74° ENE 21:56:31 10° N
Cosmos 1674 2.7 21:51:22 10° S 21:55:11 88° W 21:59:03 10° N
Meteor 2-1 Rocket 4.4 21:52:10 10° N 21:58:08 88° E 22:03:44 12° S
Cosmos 1300 3.7 21:55:52 10° NNE 21:59:20 32° ENE 22:01:28 18° SE
Meteor 2-10 4.2 21:54:43 10° N 22:00:10 72° ENE 22:04:53 15° SSE
Cosmos 2251 Rocket 3.8 21:57:37 10° S 22:02:45 50° ESE 22:07:53 10° NNE
Cosmos 1726 2.1 22:00:37 10° N 22:04:24 87° E 22:07:13 17° S
USA 215 4.2 21:58:50 11° SSE 22:04:37 37° SW 22:10:38 10° WNW
Terra 2.8 22:02:30 16° ESE 22:05:38 33° ENE 22:09:54 10° N
Cosmos 2221 3.5 22:01:50 10° N 22:05:45 33° ENE 22:08:10 19° SE
RESURS DK-1 4.4 22:06:04 12° E 22:06:04 12° E 22:07:20 10° E
Resurs 01 Rocket 4.2 22:03:54 10° SW 22:06:30 15° W 22:09:06 10° NW
Cosmos 921 Rocket 3.9 22:05:15 10° NNW 22:09:34 48° WSW 22:13:34 12° S
H-2A R/B 4.4 22:09:35 16° SE 22:11:39 17° SE 22:23:03 10° E
CENTAUR R/B 3.9 22:05:07 10° NNW 22:12:29 43° NE 22:20:13 11° ESE
NOSS 2-2 (E) 4.3 22:11:47 22° SSE 22:13:13 27° ESE 22:16:51 10° ENE
OAO 3 Rocket 4.4 22:09:30 10° WSW 22:13:35 26° S 22:15:31 20° SSE
Meteor 1-29 4.1 22:12:05 10° NE 22:14:58 25° E 22:15:43 23° ESE
NOSS 3-4 (A) 3.6 22:09:33 10° SSW 22:15:26 49° ESE 22:21:33 10° NE
NOSS 3-4 (C) 3.7 22:09:40 10° S 22:15:31 49° ESE 22:21:38 10° NE
SL-8 R/B 4.0 22:16:32 10° WSW 22:21:22 72° NNW 22:26:13 10° ENE
Cosmos 1461 3.2 22:17:40 10° SSW 22:22:14 60° ESE 22:26:56 10° NE
CZ-2C R/B 3.8 22:19:33 20° SE 22:23:23 47° ENE 22:28:50 10° N
ARGOS 4.4 22:18:47 10° SSW 22:23:44 36° W 22:28:45 10° NNW
Cosmos 2278 Rocket 2.2 22:19:34 10° S 22:25:09 64° ESE 22:30:47 10° NNE
ATLAS 3B CENTAUR R/B 4.3 22:17:17 10° SW 22:30:57 28° S 22:35:03 21° SE
APEX 3.3 22:30:18 10° NW 22:33:26 58° WSW 22:35:06 28° S
IGS 5A 3.4 22:33:19 28° SSE 22:35:26 74° ENE 22:39:36 10° N
Meteor 1-21 Rocket 4.3 22:30:00 11° S 22:35:38 87° W 22:41:28 10° N
Cosmos 220 Rocket 4.4 22:32:21 10° SSW 22:36:31 61° WNW 22:40:43 10° NNE
Cosmos 1745 Rocket 4.2 22:32:45 10° NNW 22:39:03 69° W 22:43:59 17° S
Cosmos 1844 Rocket 4.4 22:36:56 10° WSW 22:42:04 34° NW 22:47:12 10° N
COSMOS 2406 4.1 22:37:02 10° NW 22:42:25 41° WSW 22:46:26 17° SSW
NOSS 2-2 (D) 3.6 22:42:34 31° S 22:43:58 46° ESE 22:48:04 10° NE
CARTOSAT-1 3.5 22:43:53 29° SSE 22:46:03 86° W 22:50:24 10° NNW
SL-14 R/B 3.5 22:44:52 21° SSW 22:47:23 66° W 22:51:19 10° N
SPOT 5 3.6 22:45:39 19° S 22:49:12 52° W 22:54:23 10° NNW
ATLAS 3B R/B 3.2 22:50:06 10° NW 22:56:20 45° WSW 23:00:08 23° S
Cosmos 1076 Rocket 3.4 22:55:43 34° S 22:57:29 75° E 23:01:43 10° NNE
Lacrosse 5 4.2 22:54:11 10° WNW 22:58:25 26° NNW 23:02:40 10° NE
ATLAS 5 CENTAUR R/B 1.6 22:55:48 19° SSW 22:58:59 72° ESE 23:03:52 10° NE
SL-27 R/B 3.1 22:55:56 10° N 22:59:26 44° ENE 23:00:13 37° ESE
H-2A R/B 4.2 23:00:47 10° SW 23:04:34 20° W 23:08:24 10° NW
BREEZE-M DEB (TANK) 3.7 23:01:51 10° W 23:07:09 42° NNW 23:09:33 10° NE
Helios 1B rocket 3.1 23:03:20 10° N 23:07:19 51° WNW 23:10:01 19° SW
Helios 1A 4.5 23:05:04 18° SW 23:07:24 29° W 23:11:07 10° NW
Cosmos 1626 2.2 23:06:16 38° SSW 23:07:33 74° W 23:11:18 10° N
SL-08 ROCKET BODY 4.4 23:01:27 10° N 23:07:41 83° E 23:10:52 31° SSE
Mayak 0.8 23:06:04 10° ENE 23:08:13 14° E 23:08:13 14° E
Cosmos 1408 Rocket 4.2 23:07:39 35° ESE 23:08:35 40° E 23:12:46 10° NNE
Cosmos 2297 3.8 23:06:55 31° S 23:09:29 56° ESE 23:15:04 10° NNE
NOSS 2-2 (C) 3.2 23:07:58 27° SSW 23:10:02 87° SE 23:14:25 10° NE
Cosmos 1766 Rocket 3.9 23:08:57 40° SE 23:10:06 51° E 23:14:27 10° NNE
Cosmos 2082 Rocket 2.2 23:06:32 10° NNW 23:12:17 80° ENE 23:14:50 34° SSE
Cosmos 1709 Rocket 4.0 23:06:08 10° N 23:12:21 76° W 23:15:45 28° S
Cosmos 1833 Rocket 2.6 23:07:13 10° NNW 23:12:52 90° NW 23:15:19 35° SSE
Cosmos 1703 3.4 23:12:19 49° SE 23:12:55 55° E 23:16:44 10° NNE
YAOGAN 11 4.3 23:14:27 37° S 23:16:10 70° WSW 23:20:43 10° NNW
Cosmos 2058 3.6 23:17:53 35° ESE 23:18:17 36° E 23:22:06 10° NNE
CZ-2C R/B 2.5 23:13:11 10° NNE 23:18:38 79° ESE 23:21:06 33° S
Cosmos 2151 4.0 23:18:32 30° E 23:18:55 30° E 23:22:39 10° NNE
Meteor 1-27 4.4 23:14:39 10° N 23:20:30 70° ENE 23:22:58 36° SSE
BREEZE-M R/B 4.1 23:14:23 10° WNW 23:20:40 85° NNE 23:25:12 20° ESE
H-2A R/B 4.2 23:23:20 12° E 23:24:48 15° ENE 23:27:04 10° NNE
Cosmos 2074 Rocket 4.2 23:20:17 10° N 23:26:30 60° E 23:29:11 34° SE
Meteor 2-19 Rocket 4.5 23:21:28 10° N 23:27:38 79° W 23:30:33 33° S
Aureole 3 Rocket 4.2 23:24:36 22° SSW 23:29:43 73° W 23:35:11 10° N
Cosmos 1943 Rocket 4.2 23:30:13 12° E 23:30:19 12° E 23:32:24 10° ENE
Cosmos 1455 2.0 23:29:49 10° N 23:33:37 89° WSW 23:34:03 69° S
EO 1 Delta rocket 4.4 23:31:35 10° N 23:38:17 80° WNW 23:40:54 33° SSW
Cosmos 2221 4.5 23:39:50 10° NW 23:43:07 21° W 23:45:02 16° WSW
Terra 3.3 23:41:23 21° SW 23:43:23 28° W 23:47:29 10° NW
RESURS DK-1 2.6 23:41:55 37° SW 23:43:23 66° WNW 23:47:31 10° NNE
COBE Rocket 4.2 23:48:28 10° N 23:53:33 70° WNW 23:55:36 37° SSW
